Flag for U.S.A. Weather past 2 weeks in Canton, Ohio, U.S.A.

Now
59 °F

Clear.


Feels Like: 59 °F
Forecast: 56 / 82 °F
Wind: No wind

Location: Akron-Canton Regional Airport

Current Time: Jul 5, 2015 at 5:57:51 AM

Latest Report: Jul 5, 2015 at 4:51 AM


Visibility: 7 mi

Pressure: 30.08 "Hg

Humidity: 75%

Dew point: 51 °F

Location of CantonLocation

Historic Weather in Canton — Graph

°F

Canton temperature yesterday

Maximum temperature yesterday: 80 °F (at 4:51 PM)
Minimum temperature yesterday: 60 °F (at 5:51 AM)
Average temperature yesterday: 69 °F

Past Weeks' High & Low Weather Summary

 TemperatureHumidityPressure
High85 °F (Jun 23, 2:51 PM)93% (Jun 21, 1:51 AM)30.15 "Hg (Jun 21, 1:51 AM)
Low53 °F (Jul 3, 5:51 AM)38% (Jul 4, 4:51 PM)29.58 "Hg (Jun 28, 2:51 AM)
Average69 °F73%29.91 "Hg
* Reported Jun 20 3:51 AM — Jul 5 3:51 AM, Canton, Weather by CustomWeather, © 2015

Note: Actual official high and low records may vary slightly from our data, if they occured in-between our weather recording intervals... More about our weather records

Advertising

Canton weather history for previous 24 hours

 ConditionsComfort  
Time TempWeatherWind HumidityBarometerVisibility
3:51 AM
Sun, Jul 5
61 °FClear.3 mph70%30.07 "Hg8 mi
2:51 AM61 °FClear.No wind70%30.08 "Hg7 mi
1:51 AM61 °FClear.No wind72%30.08 "Hg6 mi
12:51 AM61 °FClear.No wind70%30.08 "Hg6 mi
11:51 PM
Sat, Jul 4
64 °FClear.No wind63%30.06 "Hg8 mi
10:51 PM63 °FPassing clouds.5 mph65%30.05 "Hg8 mi
9:51 PM65 °FSunny.5 mph63%30.03 "Hg10 mi
8:51 PM69 °FSunny.7 mph53%30.01 "Hg10 mi
7:51 PM72 °FSunny.8 mph52%30.00 "Hg10 mi
6:51 PM76 °FPassing clouds.7 mph45%29.99 "Hg10 mi
5:51 PM79 °FPassing clouds.8 mph42%29.99 "Hg10 mi
4:51 PM80 °FPassing clouds.5 mph38%29.97 "Hg10 mi
3:51 PM79 °FPassing clouds.5 mph42%29.98 "Hg10 mi
2:51 PM79 °FPartly sunny.9 mph42%29.98 "Hg10 mi
1:51 PM77 °FScattered clouds.6 mph48%29.98 "Hg10 mi
12:51 PM76 °FScattered clouds.3 mph48%29.97 "Hg10 mi
11:51 AM74 °FScattered clouds.7 mph56%29.97 "Hg10 mi
10:51 AM73 °FScattered clouds.7 mph59%29.96 "Hg10 mi
9:51 AM70 °FSunny.8 mph68%29.95 "Hg10 mi
8:51 AM67 °FSunny.8 mph76%29.94 "Hg10 mi
7:51 AM64 °FSunny.9 mph78%29.92 "Hg10 mi
6:51 AM61 °FClear.10 mph78%29.90 "Hg10 mi
5:51 AM60 °FPassing clouds.8 mph72%29.89 "Hg10 mi
Weather by CustomWeather, © 2015

See weather overviewHow to use our weather pages